Regional Weather Roundup
Issued by NWS

Home | Current Version | Previous Version | Text Only | Print | Product List | Glossary Off
Versions: 1 2 3 4 5 6 7 8 9 10 11 12 13 14 15 16 17 18 19 20 21 22 23 24 25 26 27 28 29 30 31 32 33 34 35 36 37 38 39 40 41 42 43 44 45 46 47 48 49 50

000
ASUS45 KBOI 071910
RWRID

IDAHO REGIONAL WEATHER ROUNDUP
NATIONAL WEATHER SERVICE BOISE ID
1200 PM MST SUN FEB 07 2016

NOTE: "FAIR" INDICATES FEW OR NO CLOUDS BELOW 12000 FEET
WITH NO SIGNIFICANT WEATHER AND/OR OBSTRUCTIONS TO VISIBILITY

IDZ012-014-072000-
SOUTHWEST IDAHO


CITY           SKY/WX    TMP DP  RH WIND       PRES   REMARKS
BOISE          SUNNY     40  33  76 VRB3      30.63F
CALDWELL       SUNNY     40  32  73 NE3       30.66R
MOUNTAIN HOME  SUNNY     37 N/A N/A VRB6      30.63S WCI  33
$$

IDZ016-017-072000-
SOUTHCENTRAL IDAHO


CITY           SKY/WX    TMP DP  RH WIND       PRES   REMARKS
BURLEY         SUNNY     39  29  67 NW3       30.59R
JEROME         MOSUNNY   31  27  85 NE8       30.60R WCI  23
TWIN FALLS     MOSUNNY   40  31  70 NW6       30.60R
$$

IDZ019>023-072000-
SOUTHEAST IDAHO


CITY           SKY/WX    TMP DP  RH WIND       PRES   REMARKS
IDAHO FALLS    CLOUDY    25  22  88 N3        30.60R FOG
POCATELLO      CLOUDY    29  21  72 SE3       30.62R
REXBURG        CLOUDY    22  22 100 CALM      30.58S FOG
$$

IDZ006-010-011-018-031-032-072000-
CENTRAL IDAHO MOUNTAINS


CITY           SKY/WX    TMP DP  RH WIND       PRES   REMARKS
MCCALL         SUNNY     24  22  91 CALM      30.58R
HAILEY         MOSUNNY   34  19  55 W7        30.57R WCI  28
STANLEY          N/A     23  12  62 CALM      30.59R
SALMON         SUNNY     21  12  68 CALM      30.63S
CHALLIS        SUNNY     23  13  65 CALM      30.59R
$$

IDZ002-004-006-007-026-072000-
NORTHERN IDAHO


CITY           SKY/WX    TMP DP  RH WIND       PRES   REMARKS
LEWISTON       SUNNY     41  31  67 NE7       30.64S
LOWELL           N/A     41  30  65 N3        30.69F
COEUR D`ALENE  SUNNY     37  30  75 MISG      30.60S
MULLAN PASS    SUNNY     27  20  75 SW5       30.49R WCI  22
$$



USA.gov is the U.S. government's official web portal to all federal, state and local government web resources and services.